www.pogodaiklimat.ru

Погода и климат >> Архив погоды >> Казахстан >> Мартук


ПОГОДА в Мартуке

  • Прогноз погоды в Мартуке
  • Монитор погоды в Мартуке
  • Климат города

АРХИВ ПОГОДЫ в Мартуке

Время (UTC), дата Ветер
(напр.,м/с)
 
Видим.   Явления Облачность Т
(С)
Тd
(С)
f
(%)
Тe
(С)
Тes
(С)
Комфортность P
(гПа)
Po
(гПа)
Тmin
(С)
Tmax
(С)
R
(мм)
R24
(мм)
S
(см)
06 13.09 З 4 20 км 4/0
[Ci sp]
+21.1 +10.3 50 +23 +27 комфорт 1021.4 1000.6 +13.2
09 13.09 З 4 20 км 3/0
[Ci fib]
+25.4 +5.5 28 +25 +31 комфорт 1020.6 1000.1
12 13.09 З 3 20 км ясно +27.0 +5.9 26 +26 +29 жарко 1019.8 999.4
15 13.09 З 2 20 км ясно +23.1 +8.7 40 +24 +24 комфорт 1020.1 999.5 +27.9
18 13.09 штиль 0 50 км ясно +14.5 +8.8 69 +14 +14 1021.4 1000.1 +27.9
21 13.09 штиль 0 50 км ясно +10.6 +6.3 75 +10 +10 1021.5 999.9
00 14.09 В 1 50 км ясно +8.7 +4.9 77 +8 +8 1022.1 1000.3
03 14.09 ЮВ 1 20 км ясно +9.7 +5.3 74 +9 +10 1022.3 1000.7
06 14.09 ЮВ 2 20 км ясно +19.0 +6.1 43 +20 +27 1021.3 1000.4 +7.3
09 14.09 ЮЗ 2 20 км ясно +27.6 +2.0 19 +26 +35 жарко 1019.2 998.8
12 14.09 ЮЗ 1 20 км 3/0
[Ci ing]
+28.6 +3.3 20 +30 +33 жарко 1017.3 997.1
15 14.09 Ю 2 20 км 8/0
[Cs]
+21.6 +5.1 34 +22 +22 комфорт 1016.7 996.0 +30.0
18 14.09 Ю 1 50 км ясно +16.3 +2.3 39 +17 +17 1017.2 996.1 +30.0
21 14.09 В 1 50 км ясно +12.8 +2.3 49 +13 +13 1017.3 996.0
00 15.09 ЮВ 2 50 км ясно +11.0 +1.2 51 +10 +10 1016.7 995.3
03 15.09 В 2 20 км 8/0
[Ac cast]
+13.9 +1.4 43 +14 +14 1016.5 995.3
06 15.09 ЮВ 2 20 км 6/0
[Ac trans]
+20.5 +4.2 34 +22 +26 комфорт 1016.6 995.8 +11.0
09 15.09 Ю 2 20 км 3/0
[Ci fib]
+28.5 +2.9 19 +27 +35 жарко 1014.9 994.8
12 15.09 ЮВ 2 20 км 3/3 1000 м
[Cu hum]
+28.6 +9.2 30 +29 +31 жарко 1014.5 994.4
15 15.09 Ю 1 20 км ясно +23.2 +13.2 53 +26 +26 жарко 1015.1 994.6 +29.6
18 15.09 В 1 50 км ясно +16.7 +11.8 73 +18 +18 1016.2 995.2 +29.6
21 15.09 В 1 50 км ясно +15.2 +11.5 79 +16 +16 1016.8 995.7
00 16.09 В 1 50 км ясно +13.2 +9.7 79 +13 +13 1017.5 996.2
03 16.09 ЮВ 1 20 км ясно +12.8 +9.5 80 +13 +13 1018.6 997.3
06 16.09 ЮЗ 2 20 км ясно +22.7 +13.2 55 +26 +32 жарко 1018.0 997.4 +10.5
09 16.09 В 1 20 км ясно +28.7 +12.1 36 +30 +40 жарко 1016.8 996.7
12 16.09 Ю 1 20 км ясно +30.4 +9.5 27 +30 +33 жарко 1016.0 996.0
15 16.09 СЗ 1 20 км ясно +24.8 +11.0 42 +26 +26 жарко 1016.8 996.4 +31.1
18 16.09 штиль 0 50 км ясно +15.9 +9.8 67 +16 +16 1018.2 997.1 +31.1
21 16.09 СЗ 1 50 км ясно +14.3 +9.0 70 +15 +15 1019.0 997.8
00 17.09 штиль 0 50 км ясно +10.4 +7.5 82 +10 +10 1019.8 998.2
03 17.09 В 1 20 км ясно +9.7 +7.2 84 +9 +10 1020.6 999.0
06 17.09 З 2 20 км 4/0
[Ci fib]
+21.0 +8.5 45 +23 +29 комфорт 1020.4 999.6 +9.0
09 17.09 СЗ 3 20 км 4/0
[Ci fib]
+27.2 +5.7 25 +26 +33 жарко 1019.1 998.7
12 17.09 СЗ 5 20 км 4/0
[Ci fib]
+27.4 +5.4 25 +26 +28 жарко 1018.3 998.0
15 17.09 С 2 50 км 8/0
[Ci fib]
+21.4 +3.5 31 +22 +22 комфорт 1019.1 998.4 +28.0
18 17.09 С 2 50 км 5/0
[Ci fib]
+17.1 +4.7 44 +17 +17 1020.3 999.2 +28.0
21 17.09 штиль 0 50 км ясно +9.9 +5.8 76 +9 +9 1021.5 999.9
00 18.09 штиль 0 50 км ясно +6.9 +4.1 82 +6 +6 1022.4 1000.6
03 18.09 штиль 0 20 км 3/0
[Ci fib]
+6.6 +4.0 83 +6 +6 1023.4 1001.5
06 18.09 СЗ 1 20 км 3/0
[Ci fib]
+18.4 +6.6 46 +20 +27 1023.0 1002.0 +6.0
09 18.09 СЗ 3 20 км 4/0
[Ci fib]
+22.2 +4.8 32 +22 +29 комфорт 1022.0 1001.3
12 18.09 СЗ 4 20 км 3/0
[Ci fib]
+23.9 +4.4 28 +24 +25 комфорт 1021.1 1000.5
15 18.09 штиль 0 50 км 4/0
[Ci fib]
+20.2 +8.3 46 +21 +21 комфорт 1021.6 1000.7 +25.0
18 18.09 штиль 0 50 км ясно +13.3 +5.7 60 +13 +13 1023.1 1001.7 +25.0
21 18.09 штиль 0 50 км ясно +10.0 +4.4 68 +10 +10 1023.8 1002.2
00 19.09 штиль 0 50 км ясно +9.4 +4.4 71 +9 +9 1024.7 1002.9
03 19.09 В 1 20 км 5/0
[Cs]
+10.0 +3.9 66 +10 +10 1025.3 1003.6
06 19.09 ЮВ 2 20 км 8/0
[Cs]
+20.4 +5.1 37 +22 +27 комфорт 1024.8 1003.9 +8.6
09 19.09 Ю 3 20 км 8/0
[Cs]
+27.6 +5.4 24 +27 +32 жарко 1023.3 1002.9
12 19.09 Ю 3 20 км 8/0
[Cs]
+29.6 +6.0 23 +28 +30 жарко 1022.0 1001.7
15 19.09 Ю 1 50 км 3/0
[Ci fib]
+22.1 +9.3 44 +24 +24 комфорт 1022.3 1001.5 +30.2
18 19.09 ЮВ 1 50 км ясно +16.4 +6.1 50 +17 +17 1023.1 1001.9 +30.2
21 19.09 В 1 50 км ясно +14.6 +5.3 54 +15 +15 1023.3 1002.0
00 20.09 В 1 50 км ясно +12.5 +4.1 57 +13 +13 1023.6 1002.1
03 20.09 В 1 20 км ясно +12.9 +3.5 53 +13 +14 1023.9 1002.5

 

Местоположение метеостанции Мартук (Актюбинская область, Казахстан): широта 50.75 долгота 56.53 высота над уровнем моря 178 м.

В архиве по умолчанию представлена погода в Мартуке за последнюю неделю. Архивные данные за месяц целиком и за предыдущие месяцы, начиная с января 2011 года, Вы можете получить, выбрав интересующий диапазон дат из раскрывающегося списка и нажав кнопку "Ввод!".

Внимание! Время в таблицах - всемирное. Для получения местного времени необходимо прибавить поправку, которая в Мартуке равна 5 ч.

Смотрите также архив погоды в соседних городах и на ближайших метеорологических станциях:

Погода в Родниковке (Актюбинская область, Казахстан) (47 км)
Погода в Актобе (Актюбинская область, Казахстан) (68 км)
Погода в Акбулаке (Оренбургская область, Россия) (70 км)
Погода в Беляевке (Оренбургская область, Россия) (75 км)
Погода в Каралаатсае (Актюбинская область, Казахстан) (88 км)
Погода в Новоалексеевке (Костанайская область, Казахстан) (91 км)
Погода в Кос-Истеке (Актюбинская область, Казахстан) (96 км)
Погода в Кувандыке (Оренбургская область, Россия) (99 км)
Погода в Соль-Илецк (Оренбургская область, Россия) (115 км)
Погода в Акжаре (Актюбинская область, Казахстан) (119 км)

Пояснения к столбцам:

Ветер - указаны скорость ветра в м/с - средняя за 10 мин, порывы в срок и между сроками (в фигурных скобках) и направление, откуда дует ветер: С - северный, СВ - северо-восточный, В - восточный, ЮВ - юго-восточный, Ю - южный, ЮЗ - юго-западный, З - западный, СЗ - северо-западный.
Видимость - горизонтальная дальность видимости в метрах или километрах. При видимости от 1 до 10 км при отсутствии осадков обычно наблюдается дымка, при ухудшении видимости до 1 км и менее - туман. В сухую погоду видимость может ухудшаться дымом, пылью или мглою.
Явления - указаны атмосферные явления, наблюдавшиеся в срок или в последний час перед сроком; фигурными скобками обозначены явления, наблюдавшиеся между сроками (за 1-3 часа до срока); квадратными скобками обозначены град или гололедные отложения с указанием их диаметра в мм.
Облачность - указаны через наклонную черту общая и нижняя облачность в баллах и высота нижней границы облаков в метрах; квадратными скобками обозначены формы облаков: Ci - перистые, Cs - перисто-слоистые, Cc - перисто-кучевые, Ac - высококучевые, As - высокослоистые, Sc - слоисто-кучевые, Ns - слоисто-дождевые, Cu - кучевые, Cb - кучево-дождевые. Подробнее классификацию облаков см. в Атласе облаков (PDF).
T - Температура воздуха - температура, измеренная на высоте 2 м над землей.
Td - Температура точки росы - температура, при понижении до которой содержащийся в воздухе водяной пар достигнет насыщения.
f - Относительная влажность воздуха - влажноcть воздуха, измеренная на высоте 2 м над землей.
Te - Эффективная температура - температура, которую ощущает одетый по сезону человек в тени. Характеристика душности погоды. При расчете учитывается влияние влажности воздуха и скорости ветра на теплоощущения человека.
Tes - Эффективная температура на солнце - температура, которую ощущает человек, с поправкой на солнечный нагрев. Характеристика знойности погоды. Зависит от высоты солнца над горизонтом, облачности и скорости ветра. Ночью, в пасмурную погоду, а также при ветре 12 м/с и более поправка равна нулю.
P - Атмосферное давление - приведенное к уровню моря атмосферное давление.
Po - Атмосферное давление - измеренное на уровне метеостанции атмосферное давление.
Tmin - Минимальная температура - минимум температуры воздуха на высоте 2 м над землей.
Tmax - Максимальная температура - максимум температуры воздуха на высоте 2 м над землей.
R - Количество осадков - Количество выпавших осадков за период времени, мм. При наведении курсора мыши на число - период времени, за который выпало указанное количество осадков.
R24 - Количество осадков - Количество выпавших осадков за 24 часа, мм.
S - Снежный покров - Высота снежного покрова, см. При наведении курсора мыши на число - состояние снежного покрова и степень покрытия местности в баллах.